This is the latest recevied weather packets stored in our database for station/object KC5DAQ-25. If no packets are shown the sender has not sent any weather packets the latest 10 day(s).
| Time | Temp. | Humidity | Pressure | Rain* | Wind** | Luminosity | Snow |
|---|---|---|---|---|---|---|---|
| 1777824538 | 23.89° C | 57% | 1014.5 hPa | 0 mm | - | 1048 W/m² | - |
| 1777824478 | 23.89° C | 59% | 1014.6 hPa | 0 mm | - | 1048 W/m² | - |
| 1777824417 | 23.89° C | 58% | 1014.5 hPa | 0 mm | - | 1052 W/m² | - |
| 1777824359 | 23.33° C | 59% | 1014.6 hPa | 0 mm | - | 1044 W/m² | - |
| 1777824298 | 23.33° C | 59% | 1014.6 hPa | 0 mm | - | 1044 W/m² | - |
| 1777824237 | 23.33° C | 59% | 1014.6 hPa | 0 mm | - | 1029 W/m² | - |
| 1777824178 | 23.33° C | 58% | 1014.5 hPa | 0 mm | - | 1029 W/m² | - |
| 1777824119 | 23.33° C | 57% | 1014.6 hPa | 0 mm | - | 1029 W/m² | - |
| 1777824058 | 23.33° C | 57% | 1014.6 hPa | 0 mm | - | 1029 W/m² | - |
| 1777823997 | 23.33° C | 59% | 1014.6 hPa | 0 mm | - | 1029 W/m² | - |
| 1777823939 | 23.33° C | 58% | 1014.6 hPa | 0 mm | - | 1015 W/m² | - |
| 1777823878 | 23.33° C | 64% | 1014.6 hPa | 0 mm | - | 1015 W/m² | - |
| 1777823818 | 23.33° C | 64% | 1014.6 hPa | 0 mm | - | 1008 W/m² | - |
| 1777823757 | 23.33° C | 64% | 1014.6 hPa | 0 mm | - | 1008 W/m² | - |
| 1777823699 | 23.33° C | 59% | 1014.6 hPa | 0 mm | - | 1008 W/m² | - |
| 1777823638 | 23.33° C | 61% | 1014.6 hPa | 0 mm | - | 1006 W/m² | - |
| 1777823578 | 23.33° C | 57% | 1014.6 hPa | 0 mm | - | 999 W/m² | - |
| 1777823520 | 23.33° C | 57% | 1014.5 hPa | 0 mm | - | 999 W/m² | - |
| 1777823457 | 23.33° C | 57% | 1014.6 hPa | 0 mm | - | 995 W/m² | - |
| 1777823397 | 23.33° C | 62% | 1014.7 hPa | 0 mm | - | 981 W/m² | - |
| 1777823337 | 23.33° C | 62% | 1014.6 hPa | 0 mm | - | 981 W/m² | - |
| 1777823278 | 23.33° C | 62% | 1014.6 hPa | 0 mm | - | 981 W/m² | - |
| 1777823217 | 23.33° C | 63% | 1014.5 hPa | 0 mm | - | 981 W/m² | - |
| 1777823157 | 23.33° C | 63% | 1014.6 hPa | 0 mm | - | 979 W/m² | - |
| 1777823097 | 23.33° C | 63% | 1014.6 hPa | 0 mm | - | 967 W/m² | - |
* Rain latest hour (hover to see other rain measurements)
** Current wind speed in m/s (hover to see current wind gust speed)